Regional Weather Roundup
Issued by NWS

Home | Current Version | Previous Version | Text Only | Print | Product List | Glossary Off
Versions: 1 2 3 4 5 6 7 8 9 10 11 12 13 14 15 16 17 18 19 20 21 22 23 24 25 26 27 28 29 30 31 32 33 34 35 36 37 38 39 40 41 42 43 44 45 46 47 48 49 50

250
ASUS43 KOAX 100710
RWRNE

WEATHER ROUNDUP FOR NEBRASKA
NATIONAL WEATHER SERVICE OMAHA NE
100 AM CST WED FEB 10 2016

NOTES: SATELLITE DATA IS BEING USED TO AUGMENT CLOUD COVER ABOVE
       12000 FEET.
       "FAIR" INDICATES FEW OR NO CLOUDS BELOW 12,000 FEET WITH NO
       SIGNIFICANT WEATHER AND/OR OBSTRUCTIONS TO VISIBILITY.

  * THESE STATIONS DO NOT REPORT WEATHER SUCH AS RAIN...SNOW OR FOG.

NEZ001>004-019>022-054>056-100800-
NEBRASKA PANHANDLE

CITY           SKY/WX    TMP DP  RH WIND       PRES   REMARKS
SCOTTSBLUFF    CLEAR     31  25  78 N3        30.14F
ALLIANCE       CLEAR     30  25  81 W13       30.08F WCI  20
CHADRON        CLEAR     34  26  72 SW8       30.07F WCI  27
KIMBALL        CLOUDY    35  24  62 W13       30.17F WCI  26
SIDNEY         CLEAR     36  25  64 W14       30.15F WCI  27
$$

NEZ057>060-069>072-079>082-100800-
SOUTHWEST NEBRASKA

CITY           SKY/WX    TMP DP  RH WIND       PRES   REMARKS
NORTH PLATTE   CLEAR     25  23  92 W5        30.08F WCI  19
IMPERIAL       CLEAR     36  26  67 W13       30.12F WCI  27
LEXINGTON      CLOUDY    29  25  82 CALM      30.10F
MCCOOK         CLEAR     30  27  88 W10       30.11F WCI  21
OGALLALA       CLEAR     33  26  75 W3        30.11S
$$

NEZ005>010-023>029-035>040-094-100800-
NORTH CENTRAL NEBRASKA

CITY           SKY/WX    TMP DP  RH WIND       PRES   REMARKS
VALENTINE      CLEAR     30  27  88 SW12      30.00F WCI  20
AINSWORTH      CLOUDY    34  28  80 SW7       30.01F WCI  28
BROKEN BOW     CLOUDY    32  27  81 CALM      30.07F
O`NEILL        CLOUDY    29  24  79 CALM      30.04F
ORD            CLOUDY    27  24  89 CALM      30.06F
THEDFORD       CLEAR     32  30  93 SW8       30.05F WCI  25
$$

NEZ041-046>049-061>064-073>077-083>087-100800-
SOUTH CENTRAL NEBRASKA

CITY           SKY/WX    TMP DP  RH WIND       PRES   REMARKS
GRAND ISLAND   CLOUDY    26  20  77 S9        30.11F WCI  17
AURORA         CLOUDY    25  17  72 S10       30.11F WCI  15
HASTINGS       CLOUDY    27  19  72 S7        30.11F WCI  19
HEBRON         CLOUDY    26  17  70 S7        30.18F WCI  18
HOLDREGE       CLOUDY    30  24  78 SW7       30.09F WCI  23
YORK           CLOUDY    25  18  74 SW13      30.12F WCI  13
$$

NEZ011>018-030>034-042>045-100800-
NORTHEAST NEBRASKA

CITY           SKY/WX    TMP DP  RH WIND       PRES   REMARKS
NORFOLK        CLOUDY    26  17  68 S5        30.09F WCI  20
ALBION         CLOUDY    26  18  73 S5        30.09F WCI  20
BLAIR          CLOUDY    20  15  80 CALM      30.15F
COLUMBUS *     CLOUDY    27  10  50 S5        30.14F WCI  21
FREMONT        CLOUDY    21  14  74 CALM      30.16F
WAYNE          CLOUDY    22  16  78 S7        30.12F WCI  13
$$

NEZ050>053-065>068-078-088>093-100800-
SOUTHEAST NEBRASKA

CITY           SKY/WX    TMP DP  RH WIND       PRES   REMARKS
LINCOLN        CLOUDY    23  16  74 S5        30.18F WCI  17
OMAHA EPPLEY   CLOUDY    21  16  81 SE5       30.19F WCI  15
BEATRICE       CLOUDY    25  17  70 SW7       30.18F WCI  17
FALLS CITY     MOCLDY    19  11  70 S3        30.21F
NEBRASKA CITY  CLOUDY    20  13  75 S3        30.19F
PLATTSMOUTH    CLOUDY    20  14  76 S5        30.18F WCI  14
$$

NEZ044-045-051>053-067-100800-
OMAHA AREA

CITY           SKY/WX    TMP DP  RH WIND       PRES   REMARKS
OMAHA EPPLEY   CLOUDY    21  16  81 SE5       30.19F WCI  15
BLAIR          CLOUDY    20  15  80 CALM      30.15F
FREMONT        CLOUDY    21  14  74 CALM      30.16F
MILLARD        CLOUDY    21  15  76 CALM      30.18F
OFFUTT AFB     CLOUDY    21  16  83 SE1       30.18F
PLATTSMOUTH    CLOUDY    20  14  76 S5        30.18F WCI  14
WAHOO          CLOUDY    20  15  81 CALM      30.17F
$$




USA.gov is the U.S. government's official web portal to all federal, state and local government web resources and services.